Location: Mount Lemmon
(32.4432°N, 110.7577°W)
Time: 06:21:02
(UTC-07:00)

Amateur Radio Satellites - All Passes

Search period start: 25 September 2017 05:51
Search period end: 26 September 2017 05:51
Location: Mount Lemmon, 32.4432°N, 110.7577°W

Satellite Date Start Highest point End Downlink Frequencies (MHz)
Time Altitude Azimuth
XW-2F 25 Sep 05:53:34 05:56:44 25° 97° (E) 05:59:53 145.980 - 146.000
XW-2B 25 Sep 05:54:54 05:58:13 28° 97° (E) 06:01:28 145.730 - 145.750
DOVE 4 25 Sep 05:55:26 05:59:40 58° 284° (WNW) 06:04:07 437.250
HO-68 25 Sep 06:04:11 06:07:09 13° 92° (E) 06:10:07 435.675
STARS 25 Sep 06:06:51 06:10:29 26° 263° (W) 06:14:09 437.465
NUDT-PHONESAT 25 Sep 06:10:51 06:14:11 32° 98° (E) 06:17:30 437.300
XW-2C 25 Sep 06:15:59 06:19:44 59° 100° (E) 06:23:26 145.795 - 145.815
LilacSat-2 25 Sep 06:30:24 06:34:12 78° 283° (WNW) 06:37:58 437.200
AO-7 25 Sep 06:32:43 06:33:36 10° 309° (NW) 06:34:29 .
KAITUO 1B 25 Sep 06:41:55 06:45:38 82° 283° (WNW) 06:49:18 145.475/437.950
CUBEBUG 2 25 Sep 06:43:07 06:45:00 12° 92° (E) 06:46:53 437.445
STRAND 1 25 Sep 06:44:24 06:49:15 48° 73° (ENE) 06:54:08 437.568
CUTE-I 25 Sep 06:48:24 06:53:45 86° 283° (WNW) 06:59:04 437.470
RS-15 25 Sep 06:51:20 07:01:37 30° 316° (NW) 07:11:59 29.354- 29.394
SEEDS 25 Sep 06:58:44 07:01:38 18° 95° (E) 07:04:31 437.485
XW-2D 25 Sep 07:17:01 07:19:44 19° 289° (WNW) 07:22:26 145.860 - 145.880
AAUSAT CUBESAT 2 25 Sep 07:17:09 07:18:40 12° 93° (E) 07:20:11 437.432
XW-2F 25 Sep 07:28:22 07:30:35 15° 290° (WNW) 07:32:48 145.980 - 146.000
CUTE 1.7 + AOD 2 25 Sep 07:29:12 07:33:25 81° 100° (E) 07:37:36 437.475
XW-2B 25 Sep 07:30:04 07:32:05 14° 290° (WNW) 07:34:05 145.730 - 145.750
ZACube-1 25 Sep 07:30:11 07:31:40 11° 92° (E) 07:33:07 437.345
XW-2A 25 Sep 07:30:33 07:33:30 27° 97° (E) 07:36:25 145.665 - 145.685
NUDT-PHONESAT 25 Sep 07:46:16 07:47:41 12° 291° (WNW) 07:49:08 437.300
HO-68 25 Sep 07:48:17 07:55:30 86° 286° (WNW) 08:02:42 435.675
CUBEBUG 2 25 Sep 08:17:13 08:21:48 52° 285° (WNW) 08:26:25 437.445
UWE-3 25 Sep 08:20:08 08:24:49 87° 283° (WNW) 08:29:28 435.000/436.395/437.385
STRAND 1 25 Sep 08:25:46 08:28:37 15° 266° (W) 08:31:28 437.568
SEEDS 25 Sep 08:33:47 08:37:15 26° 288° (WNW) 08:40:42 437.485
TIGRISAT 25 Sep 08:34:40 08:36:59 14° 67° (ENE) 08:39:19 435.000
FO-29 25 Sep 08:48:16 08:54:07 86° 76° (ENE) 08:59:26 435.910
AAUSAT CUBESAT 2 25 Sep 08:50:26 08:54:14 38° 286° (WNW) 08:58:01 437.432
Oscar 11 25 Sep 08:56:30 09:00:49 77° 101° (ESE) 09:05:06 .
AO-73 25 Sep 08:59:37 09:04:08 65° 284° (WNW) 09:08:35 145.935
ZACube-1 25 Sep 09:03:43 09:08:09 51° 285° (WNW) 09:12:32 437.345
XW-2A 25 Sep 09:04:44 09:05:53 11° 291° (WNW) 09:07:03 145.665 - 145.685
Max Valier Satellite 25 Sep 09:08:30 09:09:57 12° 94° (E) 09:11:23 145.860
RS-15 25 Sep 09:17:53 09:20:18 11° 350° (N) 09:22:43 29.354- 29.394
HO-68 25 Sep 09:39:05 09:42:10 13° 302° (WNW) 09:45:15 435.675
UNISAT 6 25 Sep 09:45:46 09:50:03 70° 258° (WSW) 09:54:27 437.425
DELFI C3 25 Sep 10:00:59 10:04:53 84° 283° (WNW) 10:08:46 145.870
EO-88 25 Sep 10:02:56 10:06:28 49° 100° (E) 10:09:59 145.990 - 145.960
PRISM 25 Sep 10:08:02 10:12:06 72° 259° (W) 10:16:10 437.425
TIGRISAT 25 Sep 10:09:14 10:13:15 39° 262° (W) 10:17:22 435.000
QB50P2 25 Sep 10:31:03 10:33:20 14° 68° (ENE) 10:35:35 145.880/145.840
YUBILEINY 25 Sep 10:33:15 10:39:18 21° 82° (E) 10:45:20 435.215
Max Valier Satellite 25 Sep 10:40:29 10:43:48 31° 286° (WNW) 10:47:06 145.860
LO-87 25 Sep 10:53:16 10:56:11 23° 97° (E) 10:59:04 145.935 - 145.965
NANOSAT C BR1 25 Sep 11:02:59 11:06:31 27° 72° (ENE) 11:10:05 145.865
AIST 2D 25 Sep 11:08:06 11:11:36 67° 259° (WSW) 11:15:08 435.315
ESTCUBE 1 25 Sep 11:22:31 11:26:40 37° 99° (E) 11:30:47 437.505/2401.250
DUCHIFAT 1 25 Sep 11:29:43 11:33:44 51° 75° (ENE) 11:37:48 145.980
M-CUBED/EXP-1 PRIME 25 Sep 11:33:20 11:36:56 27° 69° (ENE) 11:40:20 437.505
RS-15 25 Sep 11:33:29 11:40:43 17° 29° (NNE) 11:47:44 29.354- 29.394
NO-84 25 Sep 11:38:15 11:42:19 76° 311° (NW) 11:46:04 435.350 FM
POLYITAN 1 25 Sep 11:46:26 11:50:36 71° 258° (WSW) 11:54:49 437.675
EO-79 25 Sep 11:50:11 11:54:19 63° 260° (W) 11:58:29 145.935-145.965
O/OREOS (USA 219) 25 Sep 11:56:45 12:01:22 84° 72° (ENE) 12:05:57 437.305
BUGSAT 1 25 Sep 11:57:43 12:01:00 25° 71° (ENE) 12:04:18 437.445
QB50P2 25 Sep 12:04:52 12:08:44 36° 262° (W) 12:12:38 145.880/145.840
SO-50 25 Sep 12:14:30 12:18:14 26° 111° (ESE) 12:21:57 436.795
YUBILEINY 25 Sep 12:26:39 12:35:15 65° 278° (W) 12:43:53 435.215
LO-87 25 Sep 12:27:10 12:29:22 16° 289° (WNW) 12:31:33 145.935 - 145.965
NANOSAT C BR1 25 Sep 12:39:19 12:42:10 18° 265° (W) 12:45:04 145.865
DX 1 25 Sep 12:47:00 12:48:33 12° 94° (E) 12:50:05 434.975-435.025
ESTCUBE 1 25 Sep 13:00:24 13:03:06 16° 292° (WNW) 13:05:48 437.505/2401.250
SPROUT 25 Sep 13:01:56 13:06:10 61° 284° (WNW) 13:10:22 437.525
M-CUBED/EXP-1 PRIME 25 Sep 13:08:02 13:11:14 20° 258° (WSW) 13:14:17 437.505
Oscar 19 25 Sep 13:12:24 13:17:35 87° 78° (ENE) 13:22:48 437.125/150
Gurwin Techsat 1B 25 Sep 13:14:07 13:19:18 59° 74° (ENE) 13:24:31 435.225
VELOX 1 25 Sep 13:18:39 13:22:57 57° 285° (WNW) 13:27:14 145.980
50 SAT 25 Sep 13:24:53 13:28:05 48° 100° (E) 13:31:17 437.505
BUGSAT 1 25 Sep 13:33:30 13:36:17 18° 265° (W) 13:39:06 437.445
AO-7 25 Sep 13:37:52 13:43:58 23° 59° (ENE) 13:50:04 .
PCSat 25 Sep 13:42:09 13:47:32 83° 116° (ESE) 13:52:58 145.827
RS-15 25 Sep 13:44:42 13:56:28 60° 57° (ENE) 14:07:30 29.354- 29.394
SO-50 25 Sep 13:54:53 13:58:34 25° 306° (NW) 14:02:18 436.795
UKube-1 25 Sep 14:09:10 14:13:28 79° 104° (ESE) 14:17:45 .
DX 1 25 Sep 14:20:46 14:24:53 44° 286° (WNW) 14:29:00 434.975-435.025
ITAMSAT 1 25 Sep 14:23:13 14:27:16 24° 68° (ENE) 14:31:18 435.822/435.867
MOZHAYETS 4 25 Sep 14:27:23 14:28:56 11° 92° (E) 14:30:29
Gurwin Techsat 1B 25 Sep 14:57:07 14:59:32 13° 267° (W) 15:01:57 435.225
ITUPSAT 1 25 Sep 15:14:42 15:19:14 41° 99° (E) 15:23:45 437.325
AO-7 25 Sep 15:27:42 15:35:58 69° 255° (WSW) 15:44:16 .
PCSat 25 Sep 15:29:27 15:31:34 12° 311° (NW) 15:33:43 145.827
BEESAT 25 Sep 15:49:41 15:54:27 77° 285° (WNW) 15:59:13 436.000
RS-15 25 Sep 15:58:15 16:08:04 33° 256° (WSW) 16:17:30 29.354- 29.394
MOZHAYETS 4 25 Sep 16:01:50 16:06:19 51° 285° (WNW) 16:10:46
ITAMSAT 1 25 Sep 16:01:54 16:06:29 32° 262° (W) 16:11:06 435.822/435.867
CUBESAT XI-V 25 Sep 16:33:57 16:38:33 66° 101° (ESE) 16:43:04 437.345
ITUPSAT 1 25 Sep 16:53:41 16:56:40 17° 293° (WNW) 16:59:40 437.325
XW-2C 25 Sep 16:53:50 16:56:04 15° 70° (ENE) 16:58:17 145.795 - 145.815
DOVE 4 25 Sep 16:56:10 17:00:36 80° 79° (ENE) 17:04:52 437.250
Tancredo 1 25 Sep 16:56:31 16:58:42 23° 130° (SE) 17:00:55 437.200
LilacSat-2 25 Sep 17:07:51 17:11:01 25° 72° (ENE) 17:14:12 437.200
KAITUO 1B 25 Sep 17:17:37 17:20:32 22° 72° (ENE) 17:23:28 145.475/437.950
JUGNU 25 Sep 17:20:12 17:24:19 19° 170° (S) 17:28:25 437.505
BEESAT 3 25 Sep 17:31:46 17:34:10 16° 109° (ESE) 17:36:36 437.485
KKS-1 25 Sep 17:41:58 17:46:21 64° 285° (WNW) 17:50:45 437.445
XW-2D 25 Sep 17:52:08 17:55:57 82° 259° (WSW) 17:59:48 145.860 - 145.880
STARS 25 Sep 17:59:39 18:04:04 77° 103° (ESE) 18:08:28 437.465
XW-2F 25 Sep 18:02:41 18:06:28 64° 260° (W) 18:10:16 145.980 - 146.000
XW-2B 25 Sep 18:04:38 18:08:23 57° 259° (W) 18:12:11 145.730 - 145.750
CUTE-I 25 Sep 18:05:30 18:10:49 83° 257° (WSW) 18:16:08 437.470
HO-68 25 Sep 18:11:46 18:18:25 44° 69° (ENE) 18:25:06 435.675
CUTE 1.7 + AOD 2 25 Sep 18:17:13 18:20:57 30° 73° (ENE) 18:24:42 437.475
NUDT-PHONESAT 25 Sep 18:18:17 18:21:55 52° 260° (W) 18:25:36 437.300
ISS 25 Sep 18:22:38 18:25:27 28° 130° (SE) 18:28:18 437.550
XW-2C 25 Sep 18:26:40 18:29:58 28° 263° (W) 18:33:17 145.795 - 145.815
Tancredo 1 25 Sep 18:31:25 18:33:08 15° 324° (NW) 18:34:51 437.200
LilacSat-2 25 Sep 18:42:42 18:45:14 17° 265° (W) 18:47:45 437.200
SRMSAT 25 Sep 18:51:25 18:53:29 12° 163° (SSE) 18:55:33 437.500
KAITUO 1B 25 Sep 18:51:44 18:54:24 18° 265° (W) 18:57:04 145.475/437.950
nSIGHT-1 25 Sep 18:57:03 19:00:14 88° 317° (NW) 19:03:27 .
STRAND 1 25 Sep 19:00:01 19:04:10 24° 96° (E) 19:08:17 437.568
BEESAT 3 25 Sep 19:07:49 19:11:25 32° 303° (WNW) 19:15:03 437.485
JUGNU 25 Sep 19:08:04 19:12:45 24° 180° (S) 19:17:24 437.505
CUBEBUG 2 25 Sep 19:10:19 19:14:30 72° 76° (ENE) 19:18:51 437.445
UWE-3 25 Sep 19:12:24 19:16:23 40° 74° (ENE) 19:20:29 435.000/436.395/437.385
SEEDS 25 Sep 19:19:35 19:23:48 74° 259° (WSW) 19:28:02 437.485
AO-85 25 Sep 19:19:46 19:23:40 89° 299° (WNW) 19:27:34 145.980
BEESAT 2 25 Sep 19:20:17 19:24:14 86° 298° (WNW) 19:28:17 435.950
XW-2A 25 Sep 19:28:50 19:32:12 77° 259° (W) 19:35:37 145.665 - 145.685
AAUSAT CUBESAT 2 25 Sep 19:35:03 19:39:10 68° 77° (ENE) 19:43:18 437.432
Oscar 11 25 Sep 19:46:40 19:50:30 31° 72° (ENE) 19:54:21 .
AO-73 25 Sep 19:49:59 19:54:09 51° 75° (ENE) 19:58:26 145.935
NO-84 25 Sep 19:53:12 19:56:08 86° 52° (NE) 19:58:56 435.350 FM
CUTE 1.7 + AOD 2 25 Sep 19:53:58 19:56:45 17° 265° (W) 19:59:34 437.475
ZACube-1 25 Sep 19:54:14 19:58:29 67° 76° (ENE) 20:02:53 437.345
ISS 25 Sep 19:59:23 20:01:55 21° 324° (NW) 20:04:28 437.550
HO-68 25 Sep 20:00:15 20:06:12 28° 263° (W) 20:12:11 435.675
FO-29 25 Sep 20:03:35 20:05:56 12° 94° (E) 20:08:23 435.910
SRMSAT 25 Sep 20:37:43 20:42:00 21° 172° (S) 20:46:17 437.500
EO-88 25 Sep 20:38:15 20:39:19 11° 69° (ENE) 20:40:22 145.990 - 145.960
STRAND 1 25 Sep 20:38:47 20:43:16 31° 290° (WNW) 20:47:45 437.568
DELFI C3 25 Sep 20:41:50 20:45:09 26° 73° (ENE) 20:48:28 145.870
UWE-3 25 Sep 20:51:00 20:53:00 13° 268° (W) 20:55:00 435.000/436.395/437.385
JUGNU 25 Sep 20:57:01 21:01:10 20° 190° (S) 21:05:18 437.505
Max Valier Satellite 25 Sep 21:13:58 21:17:32 49° 76° (ENE) 21:21:09 145.860
Oscar 11 25 Sep 21:23:48 21:26:38 17° 266° (W) 21:29:28 .
AO-73 25 Sep 21:30:12 21:30:39 10° 269° (W) 21:31:04 145.935
UNISAT 6 25 Sep 21:41:53 21:46:11 35° 98° (E) 21:50:28 437.425
FO-29 25 Sep 21:45:30 21:51:11 73° 284° (WNW) 21:57:36 435.910
PRISM 25 Sep 21:54:26 21:57:29 20° 96° (E) 22:00:32 437.425
TIGRISAT 25 Sep 22:04:35 22:09:13 60° 100° (E) 22:13:50 435.000
EO-88 25 Sep 22:09:15 22:12:35 34° 262° (W) 22:15:57 145.990 - 145.960
DELFI C3 25 Sep 22:17:22 22:19:51 16° 265° (W) 22:22:20 145.870
ESTCUBE 1 25 Sep 22:18:02 22:21:21 20° 69° (ENE) 22:24:39 437.505/2401.250
SRMSAT 25 Sep 22:25:59 22:30:35 24° 182° (S) 22:35:10 437.500
SO-50 25 Sep 22:29:13 22:33:50 79° 62° (ENE) 22:38:29 436.795
PCSat 25 Sep 22:35:16 22:39:44 25° 56° (NE) 22:44:09 145.827
AIST 2D 25 Sep 22:39:21 22:40:39 12° 94° (E) 22:41:56 435.315
YUBILEINY 25 Sep 22:42:30 22:50:58 52° 80° (E) 22:59:25 435.215
JUGNU 25 Sep 22:48:58 22:49:30 10° 199° (SSW) 22:50:02 437.505
LO-87 25 Sep 22:56:58 23:00:29 83° 259° (WSW) 23:04:01 145.935 - 145.965
UNISAT 6 25 Sep 23:19:21 23:22:34 19° 291° (WNW) 23:25:47 437.425
DUCHIFAT 1 25 Sep 23:20:11 23:21:45 12° 93° (E) 23:23:20 145.980
PRISM 25 Sep 23:29:27 23:32:38 22° 289° (WNW) 23:35:49 437.425
POLYITAN 1 25 Sep 23:36:09 23:39:43 26° 97° (E) 23:43:17 437.675
EO-79 25 Sep 23:39:34 23:43:15 28° 97° (E) 23:46:55 145.935-145.965
TIGRISAT 25 Sep 23:43:52 23:45:19 11° 294° (WNW) 23:46:48 435.000
SPROUT 25 Sep 23:50:13 23:54:18 52° 75° (ENE) 23:58:25 437.525
QB50P2 25 Sep 23:53:46 23:57:55 48° 100° (E) 00:02:02 145.880/145.840
ESTCUBE 1 25 Sep 23:53:58 23:57:54 29° 262° (W) 00:01:51 437.505/2401.250
VELOX 1 26 Sep 00:10:46 00:15:07 68° 76° (ENE) 00:19:29 145.980
AIST 2D 26 Sep 00:10:51 00:13:50 27° 286° (WNW) 00:16:48 435.315
SRMSAT 26 Sep 00:15:21 00:19:07 17° 192° (SSW) 00:22:55 437.500
PCSat 26 Sep 00:18:14 00:23:07 35° 251° (WSW) 00:27:59 145.827
NANOSAT C BR1 26 Sep 00:26:24 00:30:40 82° 281° (W) 00:34:54 145.865
O/OREOS (USA 219) 26 Sep 00:26:54 00:29:44 17° 100° (E) 00:32:36 437.305
YUBILEINY 26 Sep 00:40:13 00:47:12 28° 275° (W) 00:54:14 435.215
M-CUBED/EXP-1 PRIME 26 Sep 00:50:03 00:52:58 31° 103° (ESE) 00:55:54 437.505
Tancredo 1 26 Sep 00:53:29 00:55:53 30° 40° (NE) 00:58:18 437.200
DUCHIFAT 1 26 Sep 00:53:32 00:57:34 42° 286° (WNW) 01:01:33 145.980
UKube-1 26 Sep 00:59:01 01:02:54 34° 72° (ENE) 01:06:47 .
DX 1 26 Sep 01:11:04 01:15:24 83° 76° (ENE) 01:19:43 434.975-435.025
POLYITAN 1 26 Sep 01:12:06 01:15:18 21° 290° (WNW) 01:18:28 437.675
EO-79 26 Sep 01:15:47 01:18:46 19° 290° (WNW) 01:21:45 145.935-145.965
BUGSAT 1 26 Sep 01:17:57 01:22:11 85° 103° (ESE) 01:26:25 437.445
50 SAT 26 Sep 01:22:08 01:25:14 39° 261° (W) 01:28:21 437.505
Oscar 19 26 Sep 01:28:52 01:33:47 44° 100° (E) 01:38:38 437.125/150
nSIGHT-1 26 Sep 01:28:56 01:30:38 13° 32° (NNE) 01:32:20 .
QB50P2 26 Sep 01:31:49 01:33:13 11° 293° (WNW) 01:34:36 145.880/145.840
Gurwin Techsat 1B 26 Sep 01:35:18 01:40:05 34° 98° (E) 01:44:50 435.225
O/OREOS (USA 219) 26 Sep 02:04:45 02:08:47 33° 294° (WNW) 02:12:54 437.305
ITUPSAT 1 26 Sep 02:17:06 02:21:10 29° 70° (ENE) 02:25:15 437.325
Tancredo 1 26 Sep 02:29:33 02:30:02 10° 233° (SW) 02:30:31 437.200
ISS 26 Sep 02:29:54 02:33:04 46° 41° (NE) 02:36:14 437.550
UKube-1 26 Sep 02:36:29 02:38:58 15° 265° (W) 02:41:27 .
ITAMSAT 1 26 Sep 02:42:24 02:44:03 11° 93° (E) 02:45:42 435.822/435.867
BEESAT 26 Sep 02:51:08 02:55:50 73° 75° (ENE) 03:00:36 436.000
MOZHAYETS 4 26 Sep 02:58:26 03:03:02 86° 77° (ENE) 03:07:41
nSIGHT-1 26 Sep 03:04:01 03:07:11 55° 227° (SW) 03:10:21 .
Oscar 19 26 Sep 03:09:20 03:12:41 18° 293° (WNW) 03:16:01 437.125/150
Gurwin Techsat 1B 26 Sep 03:15:36 03:19:47 24° 292° (WNW) 03:23:58 435.225
BEESAT 3 26 Sep 03:28:33 03:32:03 30° 56° (ENE) 03:35:30 437.485
CUBESAT XI-V 26 Sep 03:32:28 03:36:46 37° 73° (ENE) 03:41:05 437.345
AO-7 26 Sep 03:34:34 03:42:40 56° 103° (ESE) 03:50:44 .
BEESAT 2 26 Sep 03:43:30 03:45:38 14° 51° (NE) 03:47:45 435.950
AO-85 26 Sep 03:54:49 03:58:25 23° 55° (NE) 04:02:14 145.980
ITUPSAT 1 26 Sep 03:55:12 03:58:54 23° 264° (W) 04:02:39 437.325
RS-15 26 Sep 04:00:04 04:11:55 62° 111° (ESE) 04:23:57 29.354- 29.394
ISS 26 Sep 04:08:09 04:09:12 11° 234° (SW) 04:10:14 437.550
ITAMSAT 1 26 Sep 04:18:41 04:23:50 65° 286° (WNW) 04:28:59 435.822/435.867
KKS-1 26 Sep 04:35:02 04:39:22 64° 75° (ENE) 04:43:44 437.445
STARS 26 Sep 04:51:41 04:55:38 36° 73° (ENE) 04:59:37 437.465
DOVE 4 26 Sep 04:59:10 05:02:57 28° 98° (E) 05:06:54 437.250
BEESAT 3 26 Sep 05:06:56 05:09:19 16° 251° (WSW) 05:11:40 437.485
CUBESAT XI-V 26 Sep 05:11:13 05:14:11 17° 266° (W) 05:17:11 437.345
BEESAT 2 26 Sep 05:19:46 05:23:34 41° 246° (WSW) 05:27:17 435.950
AO-7 26 Sep 05:28:13 05:34:54 28° 299° (WNW) 05:41:36 .
XW-2D 26 Sep 05:30:35 05:32:35 14° 94° (E) 05:34:35 145.860 - 145.880
AO-85 26 Sep 05:34:40 05:38:49 33° 247° (WSW) 05:43:14 145.980
XW-2F 26 Sep 05:40:13 05:42:42 17° 95° (E) 05:45:10 145.980 - 146.000
XW-2B 26 Sep 05:42:22 05:45:08 19° 96° (E) 05:47:51 145.730 - 145.750
